Skip Page Navigation
NASA JPL Caltech
NASA Logo - Jet Propulsion Laboratory + View the NASA Portal
+ Near-Earth Object (NEO) Program
Search JPL
JPL Home Earth Solar System Stars & Galaxies Technology
JPL Solar System Dynamics
BODIES ORBITS EPHEMERIDES TOOLS PHYSICAL DATA DISCOVERY FAQ SITE MAP
JPL Small-Body Database Browser
Search: [ help ]  
48588 Raschroder (1994 RP11)
Classification: Main-belt Asteroid          SPK-ID: 2048588
Ephemeris | Orbit Diagram | Orbital Elements | Physical Parameters | Discovery Circumstances | Close-Approach Data ]

[ show orbit diagram ]
Orbital Elements at Epoch 2457000.5 (2014-Dec-09.0) TDB
Reference: JPL 8 (heliocentric ecliptic J2000)
 Element Value Uncertainty (1-sigma)   Units 
e .1468324493679879 9.177e-08  
a 2.387590704355788 2.8047e-08 AU
q 2.037014913146988 2.0993e-07 AU
i 5.727691185768235 6.2699e-06 deg
node 251.5180776799528 8.0244e-05 deg
peri 109.3001544173619 8.3951e-05 deg
M 169.1147572088178 3.0344e-05 deg
tp 2456367.480262326112
(2013-Mar-15.98026233)
0.00010658 JED
period 1347.529389651145
3.69
2.3744e-05
6.501e-08
d
yr
n .2671555832212303 4.7074e-09 deg/d
Q 2.738166495564588 3.2165e-08 AU
  Orbit Determination Parameters
   # obs. used (total)      480  
   data-arc span      8503 days (23.28 yr)  
   first obs. used      1991-12-13  
   last obs. used      2015-03-25  
   planetary ephem.      DE431  
   SB-pert. ephem.      SB431-BIG16  
   condition code      0  
   fit RMS      .57795  
   data source      ORB  
   producer      Otto Matic  
   solution date      2015-Apr-07 18:13:23  

Additional Information
 Earth MOID = 1.04303 AU 
 T_jup = 3.513 
[ show covariance matrix ]

Ephemeris | Orbit Diagram | Orbital Elements | Physical Parameters | Discovery Circumstances | Close-Approach Data ]

Physical Parameter Table
Parameter Symbol Value Units Sigma Reference Notes
absolute magnitude H 15.3 mag n/a MPO279999  

48588 Raschröder           Discovered 1994 Sept. 2 by F. Börngen at Tautenburg.
German Rudolf Alexander Schröder (1878-1962) was an architect, but he became known as a poet, essayist and translator. The complete edition of his work contains eight volumes, including numerous collections of verse. He revived the Protestant chorale and is cofounder of the "Insel-Verlag".
NOTE: some special characters may not display properly (any characters within {} are an attempt to place the proper accent above a character)
Reference: 20030501/MPCPages.arcLast Updated: 2003-10-02

[ show close-approach data ]
Alternate Designations
 1994 RP11 = 1998 WO21 
Ephemeris | Orbit Diagram | Orbital Elements | Physical Parameters | Discovery Circumstances | Close-Approach Data ]
ABOUT SSD CREDITS/AWARDS PRIVACY/COPYRIGHT GLOSSARY LINKS
FirstGov 2015-May-24 05:13 UT
(server date/time)  
NASA Home Page
Site Manager:   Ryan S. Park
Webmaster  Alan B. Chamberlin